Location: Godiavel Galaoual
(15.2485°N, 12.6604°W)
Time: 13:15:29
(UTC+00:00)

LightSail 2 - Pass Details

Date: 10 June 2020
Orbit: 691 x 722 km, 24.0° (Epoch: 06 July)

Event Time Altitude Azimuth Distance (km) Brightness Sun altitude
Exits shadow 03:41:53 12° 116° (ESE) 2,035 7.7 -33.2°
Drops below altitude 10° 03:42:16 10° 116° (ESE) 2,177 7.9 -33.1°
Sets 03:44:43 0° 114° (ESE) 3,101 8.7 -32.7°
